Temperature
17 17 17 17 17 16 16 16 16 16 16 16 15 15 15 15 14 14 14 14 14 14 14 14 14 14 14 14 14 14 14 14 14 14 14 14 14 14 14 14 14 14 14
17 17 17 16 16 16 16 16 16 15 15 15 15 15 15 15 14 14 14 14 14 14 14 14 14 14 14 14 14 14 14 14 13 13 13 13 13 14 14 14 14 14 14
17 17 17 16 16 16 16 16 15 15 15 15 15 15 15 14 14 14 14 14 14 14 14 14 14 14 13 13 13 13 13 13 13 13 13 13 13 13 13 14 14 14 14
17 17 16 16 16 16 16 16 15 15 15 15 15 15 14 14 14 14 14 14 14 14 13 13 13 13 13 13 13 13 13 13 13 12 12 12 13 13 13 13 13 13 13
17 17 16 16 16 16 16 15 15 15 15 15 14 14 14 14 14 14 13 13 13 13 13 13 13 13 13 13 13 12 12 12 12 12 12 12 12 12 12 12 13 13 13
17 16 16 16 16 16 16 15 15 15 15 14 14 14 14 14 14 13 13 13 13 13 13 13 12 13 13 12 12 12 12 12 12 12 11 11 11 12 12 12 12 12 12
16 16 16 16 16 16 15 15 15 14 14 14 14 14 14 14 13 13 13 13 13 12 12 12 12 12 12 12 12 12 11 11 11 11 11 11 11 11 11 11 11 11 11
16 16 16 16 16 15 15 15 14 14 14 14 13 13 13 13 13 13 13 12 12 12 12 12 12 12 12 11 11 11 11 11 11 11 11 11 11 11 11 11 10 11 11
16 16 16 16 15 15 15 15 14 14 14 13 13 13 13 13 13 13 12 12 12 12 11 11 11 11 11 11 11 11 11 11 10 10 10 10 10 10 10 10 10 10 10
16 16 16 16 15 15 15 14 14 14 13 13 13 13 13 12 12 12 12 12 11 11 11 11 11 11 11 11 10 10 10 10 10 10 10 10 10 10 10 9 9 9 9
16 16 16 15 15 15 15 14 14 13 13 13 13 12 12 12 12 12 12 11 11 11 11 10 10 10 10 10 10 10 10 10 10 9 9 9 9 9 9 9 9 9 9
16 16 15 15 15 15 14 14 13 13 13 12 12 12 12 12 12 12 11 11 11 11 10 10 10 10 10 10 10 10 9 9 9 9 9 9 9 9 9 9 9 9 8
15 15 15 14 14 14 14 14 13 13 13 12 12 12 12 11 11 11 11 11 11 11 10 10 10 10 10 10 9 9 9 9 9 9 8 8 8 8 8 8 8 8 8
15 15 14 14 14 13 13 13 13 13 12 12 12 11 11 11 11 11 11 11 10 10 10 10 10 10 9 9 9 9 9 8 8 8 8 8 8 8 8 8 7 7 7
14 14 14 14 13 13 13 13 13 13 12 12 12 11 11 11 11 11 10 10 10 10 10 10 9 9 9 9 9 8 8 8 8 8 8 7 7 7 7 7 7 7 7
14 14 13 13 13 13 12 12 12 12 12 12 11 11 11 11 11 10 10 10 10 9 9 9 9 9 8 8 8 8 8 7 7 7 7 7 7 7 6 6 6 6 6
14 13 13 13 13 12 12 12 11 11 11 11 11 11 11 10 10 10 10 9 9 9 9 9 8 8 8 8 7 7 7 7 7 7 7 6 6 6 6 6 6 6 6
13 13 13 13 12 12 12 11 11 11 11 11 10 10 10 10 10 9 9 9 9 8 8 8 8 8 7 7 7 7 6 6 6 6 6 6 6 6 6 6 5 5 5
13 13 12 12 12 11 11 11 11 11 10 10 10 10 10 9 9 9 8 8 8 8 8 7 7 7 7 7 6 6 6 6 6 6 5 5 5 5 5 5 5 5 5
12 12 12 12 11 11 11 10 10 10 10 10 10 10 9 9 9 9 8 8 8 7 7 7 7 7 6 6 6 6 5 5 5 5 5 5 5 5 4 4 4 4 4
12 11 11 11 11 11 10 10 10 10 10 9 9 9 9 9 8 8 8 8 7 7 7 7 6 6 6 6 6 5 5 5 5 5 4 4 4 4 4 4 4 4 4
11 11 11 10 10 10 10 10 9 9 9 9 9 9 8 8 8 8 7 7 7 7 7 6 6 6 5 5 5 5 4 4 4 4 4 4 4 3 3 3 3 3 3
10 10 10 10 10 9 9 9 9 9 9 8 8 8 8 8 7 7 7 7 7 6 6 6 6 5 5 5 5 4 4 4 4 4 4 3 3 3 3 3 3 2 2
10 10 10 9 9 9 9 9 8 8 8 8 8 7 7 7 7 7 7 6 6 6 6 5 5 5 5 4 4 4 4 4 3 3 3 3 3 2 2 2 2 2 2
9 9 9 9 9 8 8 8 8 8 8 7 7 7 7 7 6 6 6 6 6 5 5 5 4 4 4 4 4 3 3 3 3 3 3 3 2 2 2 2 1 1 1
9 8 8 8 8 8 8 7 7 7 7 7 6 6 6 6 6 6 5 5 5 5 4 4 4 4 3 3 3 3 3 3 3 3 2 2 2 2 1 1 1 1 1
Wind_Speed
5 5 5 4 3 4 3 3 3 3 3 4 4 4 4 4 4 4 4 5 5 5 5 5 5 5 4 4 4 3 3 2 1 2 3 3 4 4 5 7 5 3 1
5 5 5 4 4 4 4 3 3 4 3 4 4 5 5 5 4 4 4 5 5 5 5 5 5 5 5 5 4 4 4 3 2 3 3 3 4 4 4 5 6 6 3
5 5 5 4 4 4 4 4 3 4 4 4 5 5 5 5 5 4 4 4 5 5 5 6 6 6 6 5 5 5 4 4 3 2 3 3 3 3 4 5 5 5 6
6 6 5 5 5 5 5 4 4 4 4 5 5 5 5 5 5 5 4 4 5 4 5 6 6 6 6 6 5 5 5 5 4 3 3 3 3 4 4 4 5 5 5
7 6 6 6 6 6 5 4 4 4 5 5 6 6 5 5 6 7 5 5 4 4 4 5 5 7 7 6 5 5 5 4 4 3 3 3 3 4 4 3 4 4 4
8 6 6 7 6 6 5 4 5 4 4 5 5 6 6 5 8 10 8 4 4 4 4 3 4 5 5 6 6 6 5 4 4 3 3 3 4 4 4 4 4 4 4
8 8 7 7 7 6 5 5 5 4 4 5 5 5 5 5 7 8 9 5 3 3 4 4 4 6 6 4 5 6 5 5 3 2 3 4 4 4 4 5 5 5 5
9 8 8 7 7 6 6 5 4 4 4 4 4 4 4 4 5 6 8 4 3 3 4 4 4 4 7 7 5 5 5 3 3 3 3 4 4 4 3 4 5 6 5
9 9 8 8 7 7 6 5 4 4 4 3 3 4 4 3 3 4 5 3 2 3 3 3 4 4 7 9 6 6 6 5 6 7 7 8 9 9 7 3 4 4 5
9 9 8 8 8 7 6 5 4 4 4 3 3 3 4 3 3 2 3 2 2 2 2 2 5 4 5 7 4 4 5 6 7 7 7 8 7 7 7 2 2 3 4
8 8 8 8 7 7 6 4 5 4 4 3 3 2 3 4 4 2 2 1 2 2 2 2 2 4 4 6 5 3 6 7 6 6 6 5 4 3 3 4 3 2 4
9 8 8 8 7 7 6 5 4 4 4 3 3 2 2 3 4 3 2 0 3 2 2 2 2 5 6 7 6 6 9 8 5 5 4 4 4 4 4 4 6 7 6
9 8 8 7 6 6 6 5 4 4 3 3 2 2 1 1 2 2 1 2 3 2 2 3 5 7 7 5 7 8 7 4 4 4 4 5 4 4 4 4 5 7 8
9 8 7 7 7 6 5 4 4 4 3 2 2 2 1 1 1 1 0 1 2 2 3 5 8 8 6 6 6 5 4 4 4 4 4 5 4 4 4 4 4 4 5
8 7 7 6 6 6 4 3 4 3 4 4 3 2 2 2 2 2 1 1 1 2 3 3 3 3 3 3 4 4 4 4 3 4 4 4 4 4 4 4 4 4 5
7 7 6 5 5 5 5 3 2 4 5 6 5 4 2 3 4 2 1 2 3 4 3 3 3 3 4 4 4 4 4 4 3 3 4 4 4 5 5 4 4 5 6
7 6 5 5 5 5 5 5 3 1 2 3 5 5 5 4 4 3 3 4 5 4 2 3 3 3 4 4 4 4 4 4 4 4 4 4 5 5 5 5 5 5 6
6 6 6 5 5 5 5 5 5 4 3 2 3 5 6 6 6 5 5 2 2 2 2 3 4 4 4 4 4 4 4 4 4 4 4 5 5 5 5 6 5 6 7
5 4 4 4 4 4 4 4 4 4 4 3 2 3 6 6 6 6 4 3 3 4 4 4 4 4 4 4 4 4 4 4 5 4 4 5 5 5 6 6 7 9 7
4 6 5 4 4 4 4 4 4 4 4 3 3 3 3 2 2 3 4 4 4 4 4 4 4 4 4 4 4 4 4 4 4 4 5 5 5 5 7 8 7 7 7
4 4 5 4 3 3 3 4 4 3 3 3 3 4 5 4 4 5 4 4 5 5 4 4 4 4 3 3 3 4 5 4 4 4 5 5 5 6 6 7 7 7 7
3 3 3 3 3 3 2 2 2 3 3 3 2 3 6 4 4 4 4 4 4 4 4 3 4 3 3 3 3 4 5 5 5 5 5 6 6 6 6 7 7 7 8
3 3 2 2 2 3 2 2 2 2 2 2 2 2 3 3 3 3 4 3 3 3 3 2 3 3 3 4 4 4 4 5 5 5 5 6 6 6 6 7 9 10 9
2 2 2 2 2 2 2 2 2 2 2 2 2 2 2 3 3 3 3 3 3 2 2 2 3 5 6 6 6 7 6 7 7 6 7 6 7 7 7 8 9 10 9
1 2 2 2 2 2 2 1 2 1 1 1 1 1 1 1 2 2 2 2 2 2 3 4 5 6 7 8 8 7 8 9 10 9 8 7 8 8 8 9 8 9 9
1 1 1 1 1 1 1 1 0 0 0 1 1 1 1 1 2 2 2 2 2 3 4 4 6 8 8 8 9 9 10 11 12 13 10 8 8 8 8 8 10 9 10
Wind_Direction
158 137 131 127 121 108 88 88 83 81 94 90 74 74 68 59 55 49 39 37 34 29 28 40 33 28 19 12 12 13 18 39 30 329 340 355 13 7 3 358 358 6 29
149 139 133 131 133 121 111 105 104 90 74 88 85 76 66 57 52 49 44 43 42 34 28 37 33 29 20 11 17 18 13 13 29 345 339 355 2 357 359 351 359 7 8
142 141 141 142 123 110 104 94 89 92 85 78 80 77 67 58 48 42 46 47 47 43 41 43 37 31 20 15 16 15 6 6 13 9 343 348 353 358 3 355 355 355 354
147 151 145 136 126 114 101 93 81 81 83 76 74 72 67 61 45 31 29 45 46 46 57 60 51 43 32 14 14 9 6 6 1 4 350 343 347 356 17 358 347 340 337
152 151 148 136 123 115 112 106 92 76 79 82 77 71 60 58 41 31 18 30 40 44 56 71 71 62 46 32 22 7 5 6 1 359 350 351 354 5 359 343 341 327 323
148 144 128 122 116 116 118 110 99 84 77 83 86 81 66 55 45 36 20 15 21 37 40 55 81 62 42 29 13 6 10 16 3 356 347 351 343 344 344 339 335 341 323
147 140 133 130 128 131 129 114 113 106 90 87 89 90 84 63 47 29 12 5 16 24 33 35 32 41 34 8 354 347 344 337 338 339 344 338 332 336 343 333 326 320 297
147 141 141 137 137 135 128 128 129 120 113 110 107 107 100 73 48 25 2 359 14 20 37 37 46 41 19 11 359 355 344 334 314 329 325 310 310 307 306 301 297 303 300
148 148 148 146 142 141 140 140 134 126 124 126 127 121 115 99 58 28 7 356 8 12 38 45 48 54 23 15 9 349 338 336 337 333 321 309 308 314 314 324 324 328 316
155 153 151 148 147 148 148 143 137 134 140 145 141 138 137 135 123 58 25 354 351 351 16 41 39 36 19 10 1 341 331 324 330 326 316 310 308 307 311 295 301 312 310
148 145 144 145 147 145 142 143 142 140 141 147 143 141 147 147 149 133 93 12 339 344 353 4 7 3 349 338 331 312 306 308 310 309 307 307 313 316 318 316 308 283 290
143 144 146 147 151 149 142 146 148 148 154 161 153 154 162 147 146 168 160 278 331 336 328 339 339 330 323 317 312 303 307 312 303 303 304 306 306 304 301 313 311 307 293
143 146 148 149 147 147 148 151 148 146 153 158 151 160 154 126 142 148 162 302 305 299 303 312 317 310 308 301 295 301 306 300 296 297 295 291 286 288 298 303 302 302 299
150 154 156 155 150 146 147 153 152 158 164 165 171 182 178 154 140 146 227 283 306 301 301 301 302 296 290 290 299 296 284 276 275 273 277 278 284 292 293 290 292 295 296
158 159 158 155 152 148 143 149 159 167 173 172 180 173 167 182 187 163 184 259 280 285 303 290 288 292 295 296 295 291 291 297 296 292 290 295 298 299 295 291 288 289 287
161 161 158 155 152 150 150 140 116 160 154 150 156 162 165 176 180 179 209 270 292 303 312 291 290 292 295 299 301 304 303 306 300 298 299 298 298 296 293 293 291 291 290
161 160 155 157 159 161 162 163 159 154 171 175 176 176 183 193 201 218 246 280 289 294 281 275 282 287 292 296 298 301 302 305 304 297 294 296 297 298 298 295 292 291 288
157 159 157 159 164 169 172 174 173 175 184 209 216 202 197 206 218 230 242 282 287 264 252 265 273 279 286 288 292 296 300 306 310 303 300 302 302 301 301 297 294 291 290
153 160 161 158 164 170 173 177 179 184 185 186 183 204 212 219 228 236 228 233 250 256 256 258 265 273 280 286 289 290 291 295 302 305 301 297 298 298 297 294 292 293 292
153 161 160 162 169 173 179 183 185 187 190 191 197 200 190 201 223 235 230 237 247 256 260 262 264 269 277 282 286 288 290 294 299 300 300 299 294 292 290 291 292 292 289
145 161 165 172 183 181 185 190 187 187 194 200 204 198 187 206 222 228 230 233 241 250 257 261 262 265 267 274 281 284 285 286 287 291 295 296 294 291 289 288 288 288 289
140 156 174 181 181 180 190 189 182 186 199 210 215 212 205 215 223 230 234 239 240 239 248 255 259 257 257 262 273 280 284 285 286 287 288 290 290 288 290 291 292 293 293
147 162 176 181 170 175 194 199 196 201 207 212 209 212 217 229 232 237 242 246 250 257 262 266 267 275 289 285 288 287 281 285 290 295 294 293 293 290 290 290 290 293 292
158 169 179 179 172 176 193 211 211 212 216 227 229 225 225 236 246 253 253 253 257 265 276 281 281 285 289 292 291 287 288 294 299 301 297 290 288 287 288 288 289 290 291
167 168 165 171 178 179 192 213 218 220 234 250 255 260 265 269 276 278 273 268 275 279 289 297 295 291 291 293 292 295 298 300 301 303 299 294 285 283 285 285 286 289 288
163 153 151 155 162 161 166 195 227 263 281 295 304 302 298 294 288 288 290 290 290 288 287 289 292 295 297 299 298 298 300 301 301 300 297 293 284 281 282 282 284 285 284
Height
1547 1549 1550 1552 1553 1554 1555 1556 1557 1557 1557 1558 1558 1558 1558 1557 1557 1557 1557 1557 1556 1556 1555 1555 1555 1554 1554 1554 1554 1553 1553 1553 1552 1552 1551 1550 1549 1548 1546 1545 1544 1543 1543
1545 1547 1549 1551 1552 1553 1554 1555 1556 1557 1557 1558 1558 1558 1558 1558 1558 1558 1557 1557 1557 1556 1556 1556 1555 1554 1554 1554 1553 1553 1553 1552 1552 1550 1550 1549 1548 1547 1546 1545 1544 1543 1542
1544 1546 1548 1550 1552 1553 1554 1555 1556 1556 1557 1558 1558 1558 1558 1558 1558 1558 1558 1558 1557 1557 1556 1556 1555 1554 1554 1553 1553 1552 1552 1551 1551 1550 1549 1549 1548 1547 1545 1544 1543 1542 1541
1542 1544 1547 1549 1550 1551 1552 1554 1555 1556 1557 1557 1558 1558 1558 1558 1558 1558 1558 1558 1557 1557 1556 1556 1555 1555 1554 1553 1553 1552 1551 1551 1550 1549 1548 1548 1547 1546 1544 1543 1541 1541 1540
1540 1543 1545 1547 1549 1550 1551 1553 1554 1555 1556 1557 1557 1557 1558 1558 1558 1558 1558 1558 1557 1557 1557 1556 1556 1555 1554 1553 1553 1552 1551 1550 1549 1548 1547 1546 1545 1544 1543 1542 1540 1539 1538
1538 1541 1543 1545 1547 1549 1550 1552 1553 1554 1555 1556 1556 1557 1557 1557 1557 1557 1558 1557 1557 1557 1556 1556 1555 1554 1554 1553 1552 1552 1551 1550 1549 1548 1547 1545 1544 1543 1542 1540 1539 1537 1536
1536 1539 1541 1543 1545 1547 1549 1551 1552 1553 1554 1555 1556 1556 1556 1557 1557 1557 1557 1557 1557 1556 1556 1556 1555 1554 1553 1552 1552 1551 1550 1549 1549 1548 1546 1544 1543 1542 1540 1538 1537 1536 1535
1535 1537 1540 1542 1544 1546 1547 1549 1551 1552 1553 1554 1554 1555 1555 1556 1556 1556 1556 1556 1556 1556 1555 1555 1554 1553 1552 1551 1550 1549 1548 1548 1547 1546 1545 1543 1542 1540 1539 1538 1536 1534 1533
1532 1535 1538 1540 1542 1544 1546 1547 1549 1551 1552 1553 1554 1554 1554 1555 1555 1555 1555 1555 1555 1555 1554 1554 1553 1552 1551 1550 1549 1547 1546 1546 1545 1544 1543 1541 1540 1538 1537 1535 1533 1531 1529
1530 1533 1536 1538 1540 1542 1544 1546 1548 1549 1550 1551 1552 1553 1553 1554 1554 1554 1554 1554 1554 1553 1553 1552 1552 1551 1550 1548 1547 1545 1544 1543 1542 1540 1539 1538 1537 1536 1534 1533 1531 1529 1527
1528 1531 1534 1536 1538 1540 1542 1544 1546 1547 1549 1550 1551 1551 1552 1553 1553 1553 1553 1552 1552 1551 1551 1550 1549 1549 1548 1546 1545 1543 1542 1540 1539 1537 1536 1535 1534 1532 1531 1530 1529 1527 1525
1526 1529 1531 1534 1536 1538 1540 1542 1544 1545 1547 1548 1549 1550 1550 1551 1551 1551 1551 1551 1550 1549 1549 1548 1547 1546 1545 1544 1542 1541 1539 1537 1536 1534 1532 1531 1530 1529 1528 1526 1525 1524 1523
1524 1527 1529 1532 1534 1536 1538 1540 1542 1543 1545 1546 1547 1547 1548 1548 1549 1549 1549 1548 1548 1547 1546 1546 1545 1543 1542 1541 1539 1538 1536 1534 1532 1530 1529 1527 1526 1525 1524 1522 1521 1519 1518
1522 1524 1527 1530 1532 1534 1536 1537 1539 1540 1542 1543 1544 1545 1546 1546 1546 1546 1546 1546 1545 1544 1543 1543 1542 1541 1539 1538 1536 1534 1533 1531 1529 1527 1525 1524 1523 1521 1520 1518 1516 1514 1512
1520 1522 1525 1527 1529 1531 1533 1535 1536 1538 1539 1541 1541 1542 1543 1543 1543 1544 1543 1543 1542 1541 1540 1539 1538 1537 1536 1534 1532 1531 1529 1527 1526 1524 1522 1520 1518 1517 1515 1514 1512 1510 1508
1517 1520 1522 1525 1527 1528 1530 1533 1534 1536 1537 1538 1539 1540 1540 1541 1541 1541 1541 1540 1539 1539 1537 1536 1535 1534 1532 1531 1529 1527 1526 1524 1522 1520 1518 1516 1514 1512 1510 1509 1507 1505 1503
1514 1517 1519 1522 1524 1525 1527 1529 1531 1533 1534 1535 1536 1537 1537 1538 1538 1538 1537 1537 1536 1535 1534 1533 1532 1530 1529 1527 1526 1524 1522 1520 1518 1516 1514 1512 1510 1508 1506 1504 1502 1500 1497
1512 1514 1516 1518 1520 1522 1524 1526 1528 1529 1530 1531 1533 1533 1534 1534 1534 1534 1534 1533 1532 1531 1530 1529 1528 1527 1525 1524 1522 1520 1518 1516 1514 1512 1510 1508 1506 1503 1501 1499 1497 1495 1492
1509 1511 1513 1516 1518 1520 1521 1523 1524 1526 1527 1528 1529 1530 1530 1530 1530 1530 1530 1529 1528 1527 1526 1525 1524 1523 1521 1519 1517 1516 1513 1511 1509 1507 1505 1503 1500 1498 1496 1494 1491 1489 1486
1506 1509 1511 1513 1515 1516 1518 1520 1521 1522 1523 1524 1525 1525 1526 1526 1525 1525 1525 1524 1524 1523 1522 1521 1519 1518 1516 1515 1513 1511 1508 1506 1504 1502 1499 1497 1495 1493 1491 1488 1486 1483 1480
1504 1506 1508 1510 1512 1513 1515 1516 1518 1519 1519 1520 1521 1521 1522 1521 1521 1520 1520 1519 1519 1518 1517 1516 1514 1513 1511 1509 1507 1505 1503 1501 1499 1496 1494 1491 1489 1487 1485 1482 1480 1477 1474
1501 1503 1505 1507 1508 1510 1512 1513 1514 1515 1516 1516 1517 1517 1517 1517 1516 1516 1515 1515 1514 1513 1512 1511 1509 1507 1506 1504 1502 1500 1498 1495 1493 1490 1488 1485 1483 1481 1478 1476 1473 1471 1468
1499 1500 1502 1504 1506 1507 1509 1510 1511 1511 1512 1512 1513 1513 1513 1512 1512 1511 1510 1510 1509 1508 1507 1505 1503 1501 1500 1498 1496 1494 1492 1490 1487 1485 1482 1479 1477 1474 1472 1469 1466 1464 1461
1496 1498 1499 1501 1502 1504 1505 1506 1507 1508 1508 1508 1508 1508 1508 1508 1507 1506 1505 1504 1503 1502 1500 1499 1497 1495 1494 1492 1490 1488 1486 1484 1481 1479 1476 1473 1470 1467 1465 1462 1460 1457 1455
1494 1495 1497 1498 1499 1500 1502 1503 1503 1504 1504 1504 1504 1504 1503 1503 1502 1501 1500 1499 1497 1496 1494 1493 1491 1489 1487 1485 1483 1481 1479 1477 1475 1472 1469 1466 1463 1460 1458 1455 1453 1450 1447
1491 1492 1494 1495 1496 1497 1498 1499 1499 1500 1500 1500 1499 1499 1498 1497 1496 1495 1494 1493 1491 1490 1488 1486 1484 1483 1481 1479 1476 1474 1472 1470 1467 1464 1462 1459 1455 1453 1450 1448 1445 1442 1440